sat.trackr.live / text

‹ back to catalog

SCD 2

NORAD 25504 · 1998-060A

PAYLOAD ACTIVE UNKNOWN

§ Identity

Operator
Country
BRAZ
Launch date
1998-10-23
Launch site
ERAS
Launch vehicle
Mass (kg)
RCS (m²)
0.46

Purposes: earth_obs

External: N2YO · Heavens-Above · Gunter

§ Orbital elements

Epoch: 2026-09-19T13:26:02.084640Z

Period
99.62 min
Inclination
24.9943°
Eccentricity
0.0016873
Mean motion
14.45554107 rev/d
Perigee alt
728.2 km
Apogee alt
752.2 km
Semi-major
7,118.3 km
B*
4.4628e-5
RAAN
210.1523°
Arg perigee
41.3044°
Mean anomaly
119.1967°
Rev number
47,399

§ Raw data

SCD 21 25504U 98060A   26262.55974635  .00000342  00000+0  44628-4 0  99972 25504  24.9943 210.1523 0016873  41.3044 119.1967 14.45554107473996

JSON: /api/v1/satellites/25504 · /tle

For live sub-satellite position, see the globe view (requires WebGL).

§ Visibility from observer

Set your observer location to see the next 7 days of passes ≥ 10°. The values pass through the URL so the page stays shareable.

No JS? Fill the form by hand. The geolocation button needs JavaScript.